McCook, NE

7:04 PM CST on February 24, 2018 (GMT -0600)
McCook Municipal

Weather History for KMCK - November, 2011

Change the Weather History Date:

Wednesday, November 9, 2011

  Actual Average Record
Temperature  
Mean Temperature 38 °F 41 °F  
Max Temperature 53 °F 56 °F 79 °F (1999)
Min Temperature 23 °F 27 °F 13 °F (1953)
Degree Days  
Heating Degree Days 26    
Moisture  
Dew Point 22 °F    
Average Humidity 59    
Maximum Humidity 82    
Minimum Humidity 29    
Precipitation  
Precipitation 0.00 in 0.03 in 0.70 in (1970)
Month to date precipitation 0.11 0.35  
Year to date precipitation 19.03 21.29  
Sea Level Pressure  
Sea Level Pressure 30.40 in    
Wind  
Wind Speed 14 mph (NW)    
Max Wind Speed 22 mph    
Max Gust Speed 31 mph    
Visibility 10 miles    
Events      
T = Trace of Precipitation, MM = Missing Value Source: NWS Daily Summary

Daily Weather History Graph

Daily Weather History Graph

Search for Another Location

Airport or City:

Trip Planner

Search our weather history database for the weather conditions in past years. The results will help you decide how hot, cold, wet, or windy it might be!

Date:

Astronomy

Nov. 09, 2011 Rise Set
Actual Time 7:20 AM CST 5:31 PM CST
Civil Twilight 6:52 AM CST 5:59 PM CST
Nautical Twilight 6:19 AM CST 6:32 PM CST
Astronomical Twilight 5:47 AM CST 7:04 PM CST
Moon 4:43 PM CST (11/9) 6:18 AM CST (11/9)
Length of Visible Light 11h 07m
Length of Day
10h 10m
Waxing Gibbous, 99% of the Moon is Illuminated
Nov 9
Waxing Gibbous
Nov 10
Full
Nov 18
Last Quarter
Nov 25
New
Dec 2
First Quarter

Hourly Weather History & Observations

Time (CST) Temp. Windchill Dew Point Humidity Pressure Visibility Wind Dir Wind Speed Gust Speed Precip Events Conditions
12:53 AM 30.9 °F 21.2 °F 26.1 °F 82% 30.28 in 10.0 mi WNW 12.7 mph - N/A   Clear
1:53 AM 30.9 °F 21.7 °F 26.1 °F 82% 30.29 in 10.0 mi NW 11.5 mph - N/A   Clear
2:53 AM 32.0 °F 21.6 °F 26.1 °F 79% 30.30 in 10.0 mi NNW 15.0 mph - N/A   Clear
3:53 AM 30.9 °F 20.7 °F 24.1 °F 76% 30.32 in 10.0 mi NNW 13.8 mph - N/A   Clear
4:53 AM 30.2 °F 20.2 °F 23.0 °F 75% 30.31 in 10.0 mi WNW 12.7 mph - N/A   Clear
5:53 AM 26.6 °F 15.2 °F 21.2 °F 80% 30.33 in 10.0 mi WNW 13.8 mph - N/A   Clear
6:53 AM 26.1 °F 13.6 °F 21.0 °F 81% 30.41 in 10.0 mi WNW 16.1 mph - N/A   Clear
7:53 AM 28.4 °F 16.6 °F 21.2 °F 74% 30.37 in 10.0 mi WNW 16.1 mph - N/A   Clear
8:53 AM 32.0 °F 21.6 °F 24.1 °F 73% 30.46 in 10.0 mi WNW 15.0 mph - N/A   Clear
9:53 AM 41.0 °F 32.5 °F 24.1 °F 51% 30.46 in 10.0 mi NW 17.3 mph 23.0 mph N/A   Clear
10:53 AM 46.9 °F - 25.0 °F 42% 30.46 in 10.0 mi NNW 13.8 mph - N/A   Clear
11:53 AM 48.9 °F - 24.1 °F 38% 30.45 in 10.0 mi NNW 15.0 mph - N/A   Clear
12:53 PM 51.1 °F - 23.0 °F 33% 30.43 in 10.0 mi NNW 17.3 mph 24.2 mph N/A   Clear
1:53 PM 53.1 °F - 21.0 °F 29% 30.41 in 10.0 mi NW 21.9 mph 28.8 mph N/A   Scattered Clouds
2:53 PM 50.0 °F - 19.0 °F 29% 30.40 in 10.0 mi NW 21.9 mph 31.1 mph N/A   Partly Cloudy
3:53 PM 48.9 °F - 19.0 °F 31% 30.40 in 10.0 mi NW 17.3 mph - N/A   Partly Cloudy
4:53 PM 48.9 °F - 19.0 °F 31% 30.40 in 10.0 mi NW 13.8 mph - N/A   Scattered Clouds
5:53 PM 41.0 °F 35.2 °F 19.0 °F 41% 30.42 in 10.0 mi NW 9.2 mph - N/A   Mostly Cloudy
6:53 PM 37.0 °F 29.8 °F 19.9 °F 50% 30.44 in 10.0 mi North 10.4 mph - N/A   Mostly Cloudy
7:53 PM 33.1 °F 25.5 °F 19.9 °F 59% 30.45 in 10.0 mi North 9.2 mph - N/A   Clear
8:53 PM 30.9 °F 25.2 °F 19.9 °F 64% 30.45 in 10.0 mi WSW 5.8 mph - N/A   Clear
9:53 PM 26.1 °F 18.4 °F 19.0 °F 75% 30.45 in 10.0 mi West 6.9 mph - N/A   Clear
10:53 PM 26.1 °F 17.6 °F 18.0 °F 71% 30.44 in 10.0 mi West 8.1 mph - N/A   Clear
11:53 PM 24.1 °F 15.2 °F 17.1 °F 75% 30.43 in 10.0 mi WSW 8.1 mph - N/A   Clear